Weather Service Report


338 
FPUS83 KFGF 230531
OPUFGF
PRAIRIE TO PINES WEATHER ROUNDUP
NATIONAL WEATHER SERVICE EASTERN NORTH DAKOTA/GRAND FORKS ND
1100 PM CST MON DEC 22 2014

 **SATELLITE DATA USED TO AUGMENT SKY COVER AT AUTOMATED STATIONS**
 *****  WEATHER ACROSS EASTERN NORTH DAKOTA  *****
  
CITY           SKY/WX    TMP DP  RH WIND       PRES   REMARKS
GRAND FORKS    DRIZZLE   36  34  93 N6        29.75R FOG              
GRAND FORKS AF CLOUDY    32  32 100 NE7       29.76R FOG              
GRAND CITY NWS NOT AVBL                                               
BUXTON           N/A     35  34  99 N5          N/A                   
DEVILS LAKE    CLOUDY    34  30  86 N13       29.77R WCI  25          
FARGO          MIX PCPN  35  33  92 NE8       29.70R FOG              
WAHPETON ARPT  CLOUDY    32  32 100 NE5       29.68R                  
$$

 *****  WEATHER ACROSS CENTRAL AND WESTERN NORTH DAKOTA  *****
  
CITY           SKY/WX    TMP DP  RH WIND       PRES   REMARKS
JAMESTOWN      CLOUDY    33  32  96 N13       29.70R FOG     WCI  24  
BISMARCK       LGT SNOW  31  29  92 N15       29.76R FOG     WCI  20  
MINOT          CLOUDY    30  28  92 N14       29.84R FOG     WCI  19  
MINOT AFB      FRZ DRZL  30  30 100 N12       29.85R WCI  21          
GARRISON         N/A     30  29  96 N17G24    29.81R WCI  18          
WILLISTON      CLOUDY    26  21  81 N16       29.93R WCI  14          
DICKINSON      FLURRIES  25  21  85 NW14      29.82R WCI  13          
HETTINGER      LGT SNOW  24  20  84 NW18G28   29.83R FOG     WCI  10  
$$

 *****  OTHER OBSERVATIONS NORTHEAST NORTH DAKOTA  *****
  
CITY           SKY/WX    TMP DP  RH WIND       PRES   REMARKS
WALHALLA       LGT SNOW  32  32 100 N15       29.82R WCI  22          
LANGDON        CLOUDY    32  32 100 N16       29.78R FOG     WCI  21  
CAVALIER       LGT SNOW  32  32 100 N9          N/A  WCI  24          
GRAFTON        NOT AVBL                                               
CANDO          CLOUDY    32  32 100 N16       29.80R WCI  21          
FORT TOTTEN      N/A     32  32 100 N5        29.95S                  
ROLLA          NOT AVBL                                               
RUGBY          CLOUDY    32  32 100 N14       29.82R WCI  22          
 ***** THE ABOVE OBSERVATIONS ARE NON NWS ARE NOT QUALITY
        CONTROLLED AND MAY MIS-REPORT RAIN FOR SNOW...
$$

 *****  OTHER OBSERVATIONS SOUTHEAST NORTH DAKOTA *****
  
CITY           SKY/WX    TMP DP  RH WIND       PRES   REMARKS
COOPERSTOWN    NOT AVBL                                               
VALLEY CITY    CLOUDY    32  32 100 NE7       29.70R FOG              
OAKES            N/A     32  32 100 NE12      29.67R FOG     WCI  23  
GWINNER        CLOUDY    34  34 100 NE9       29.68R                  
SHEYENNE NWR     N/A     33  33  98 NE6       29.95                   
BUFFALO        NOT AVBL                                               
WYNDMERE         N/A     34  36 100 NE9         N/A                   
 ***** THE ABOVE OBSERVATIONS ARE NON NWS ARE NOT QUALITY
       CONTROLLED AND MAY MIS-REPORT RAIN FOR SNOW...
$$

  *****  WEATHER ACROSS NORTHERN MINNESOTA  *****     
  
CITY           SKY/WX    TMP DP  RH WIND       PRES   REMARKS
FLAG ISLAND    CLOUDY    34  34 100 NE3       29.78R FOG              
WARROAD        CLOUDY    34  28  80 NE6       29.78R                  
ROSEAU         CLOUDY    34  30  86 E7        29.77R FOG              
HALLOCK        CLOUDY    36  34  93 NE6       29.77R FOG              
THF RVR FALLS  CLOUDY    34  34 100 E8        29.75R                  
HALSTAD          N/A     34  32  92 NE8         N/A                   
FOSSTON        MIX PCPN  32  32 100 NE5       29.73R                  
BAUDETTE       FLURRIES  33  32  96 E5        29.76R                  
WASKISH        LGT SNOW  34  32  93 CALM      29.75R                  
CROOKSTON      CLOUDY    36  34  93 E6        29.75R                  
$$
  *****  WEATHER ACROSS CENTRAL AND WEST MINNESOTA  *****     
  
CITY           SKY/WX    TMP DP  RH WIND       PRES   REMARKS
BEMIDJI        LGT SNOW  32  32 100 NE3       29.72R                  
PARK RAPIDS    LGT SNOW  34  32  92 E6        29.68R FOG              
WADENA         LGT SNOW  32  30  93 E6        29.68R                  
DETROIT LAKES  LGT SNOW  34  32  93 E5        29.69R                  
MOORHEAD       LGT RAIN  36  36 100 NE7       29.71R                  
FERGUS FALLS   LGT SNOW  34  34 100 E7        29.69R                  
ELBOW LAKE     LGT SNOW  32  32 100 NE7       29.65R                  
MORRIS MN      MIX PCPN  34  34 100 E10       29.63R                  
STAPLES        RAIN      32  32 100 CALM      29.68R                  
WHEATON        LGT SNOW  30  30 100 NE6       29.67R WCI  24          
$$
  *****  WEATHER ELSEWHERE ACROSS MINNESOTA  *****     
  
CITY           SKY/WX    TMP DP  RH WIND       PRES   REMARKS
DULUTH         CLOUDY    35  32  88 E10       29.72R FOG              
INTRNTL FALLS  CLOUDY    33  32  96 NE5       29.77R                  
ELY            CLOUDY    34  32  93 CALM      29.76S FOG              
CLOQUET        CLOUDY    34  34 100 E6        29.72R FOG              
BRAINERD       CLOUDY    34  33  96 E6        29.69R FOG              
HIBBING        CLOUDY    35  32  88 E6        29.74R FOG              
ALEXANDRIA     LGT SNOW  33  32  96 E10       29.65R FOG     WCI  25  
SAINT CLOUD    CLOUDY    37  33  85 NE8       29.65R FOG              
MINNEAPOLIS    CLOUDY    35  32  88 E14       29.63R FOG              
$$

  *****  WEATHER ACROSS SOUTH DAKOTA  *****
  
CITY           SKY/WX    TMP DP  RH WIND       PRES   REMARKS
SIOUX FALLS    LGT RAIN  35  33  92 E10       29.50R                  
BROOKINGS      NOT AVBL                                               
WATERTOWN      LGT SNOW  33  31  92 E12       29.56R FOG     WCI  24  
HURON          CLOUDY    32  32 100 N5        29.56R FOG              
SISSETON         N/A     32  32 100 E8        29.63R WCI  25          
ABERDEEN       LGT SNOW  33  31  92 NE13      29.63R FOG     WCI  24  
MITCHELL       CLOUDY    33  33 100 N10       29.54R FOG     WCI  25  
PIERRE         LGT SNOW  30  28  92 NW24      29.62R FOG     WCI  16  
MOBRIDGE       LGT SNOW  31  28  89 N22G30    29.64R FOG     WCI  18  
RAPID CITY     LGT SNOW  25  22  88 N31G38    29.76R FOG     WCI   8  
$$

  *****  SOME WEATHER IN NEARBY STATES *****
  
CITY           SKY/WX    TMP DP  RH WIND       PRES   REMARKS
GLASGOW MT     CLOUDY    29  23  78 NW16      30.02R WCI  17          
GREAT FALLS MT CLOUDY    32  23  69 SW10      30.13R WCI  24          
CHEYENNE WY    CLOUDY    24  15  68 NW23G36   29.78R WCI   9          
SCOTTSBLUFF NE LGT SNOW  31  27  85 NW21      29.78R FOG     WCI  18  
OMAHA NE       DRIZZLE   38  36  92 NW10      29.48R                  
DES MOINES IA  LGT RAIN  40  38  93 E7        29.43F FOG              
DAVENPORT IA   LGT RAIN  41  39  93 E10       29.48F FOG              
CHICAGO IL     CLOUDY    41  39  93 E14       29.60F FOG              
EAU CLAIRE WI  LGT SNOW  33  31  92 NE13      29.64S FOG     WCI  24  
LA CROSSE WI   CLOUDY    37  34  89 E9        29.59S                  
$$

  *****  SOME NATIONAL WEATHER *****
  
CITY           SKY/WX    TMP DP  RH WIND       PRES   REMARKS
LA GUARDIA NY  DRIZZLE   43  42  97 NE12      30.16F FOG              
RALEIGH NC     DRZL/FOG  37  35  92 CALM      30.07R VSB 1/4          
ATLANTA GA     DRZL/FOG  43  42  97 E9        29.93R VSB 1            
NEW ORLEANS LA CLOUDY    69  66  90 S7        29.73F FOG              
OKLAHOMA CITY  CLOUDY    46  34  62 NW9       29.70R                  
ALBUQUERQUE NM PTCLDY    44  23  43 N14G33    29.80R                  
SALT LAKE CITY MOCLDY    36  29  75 N13       30.18R                  
LOS ANGELES CA CLEAR     59  56  89 E5        30.01R                  
BOISE ID       CLEAR     35  26  69 W6        30.35R                  
SEATTLE WA     CLOUDY    46  39  76 E5        30.35S                  
$$

*** WEATHER ACROSS MANITOBA...SASKATCHEWAN AND ONTARIO ***
                ***ONTARIO***
  
CITY           SKY/WX    TMP DP  RH WIND       PRES   REMARKS
GERALDTON      LGT SNOW  32  32 100 SE5       29.90  FOG              
THUNDER BAY    CLOUDY    36  34  93 E8        29.86  FOG              
SIOUX LOOKOUT  LGT SNOW  32  32 100 E3        29.82                   
TORONTO        CLOUDY    36  32  87 E7        30.04                   
BIG TROUT LK   FOG       28  28 100 N2        29.94R VSB 1            
PICKLE LAKE    NOT AVBL                                               
DRYDEN         LGT SNOW  32  32 100 NE5       29.80R VSB 3/4          
KENORA         SNOW      32  32 100 NE5       29.79R VSB 3/8          
$$      
                *** MANITOBA***
  
CITY           SKY/WX    TMP DP  RH WIND       PRES   REMARKS
BRANDON        CLOUDY    28  27  93 NE8       29.88R WCI  20          
DAUPHIN        FLURRIES  28  28 100 N9        29.95R WCI  20          
ISLAND LAKE    LGT SNOW  23  23 100 N8        29.98R FOG     WCI  14  
PILOT MOUND      N/A     30  28  93 N10         N/A  WCI  21          
THE PAS        FLURRIES  21  19  93 N3        30.00R                  
THOMPSON       CLOUDY     5   1  85 CALM      30.07R                  
WINNIPEG       FOG       32  30  93 N12G17    29.84R VSB 1/2 WCI  23  
LYNN LAKE      FLURRIES   9   7  92 SE3       30.05R                  
CHURCHILL      FLURRIES  12  10  92 N12       30.14R WCI  -2          
GILLAM         FLURRIES  16  14  93 N9        30.07R WCI   4          
$$
                ***SASKATCHEWAN***
  
CITY           SKY/WX    TMP DP  RH WIND       PRES   REMARKS
ESTEVAN        FLURRIES  27  25  93 N13       29.92R WCI  16          
KINDERSLEY     CLOUDY    27  25  93 NW13      30.02  WCI  16          
LLOYDMINSTER   FLURRIES  25  25 100 NW9       30.01R WCI  15          
PRINCE ALBERT  FLURRIES  21  21 100 W5        30.00  WCI  15          
REGINA         CLOUDY    21  21 100 NW9       30.01R WCI  11          

Return to Home page


Western Regional Climate Center, wrcc@dri.edu